Torna al catalogo

ATLAS 5 CENTAUR DEB

AttivoHEO
NORAD 44686·DEBRIS·🇺🇸 United States

Lanciato Oct 17, 2018 da Cape Canaveral Space Force Station

Loading…

Prossimi Passaggi (prossime 24 ore)

TLE

In scadenzaSource: Space-Track

Epoca: Sep 1, 2026, 21:11 UTC

1 44686U 18079AY  26244.88302073 -.00000121  00000-0  00000+0 0  9996
2 44686  12.7781  67.9238 4630175 249.3876  56.1617  1.69097359 44874

Traccia ATLAS 5 CENTAUR DEB in tempo reale con AllMySat

Download on the App Store